Location: Heilbronn
(49.1548°N, 9.2780°E)
Time: 04:27:53
(UTC+01:00)

ISS - Pass Details

Date: 26 February 2019
Orbit: 406 x 411 km, 51.6° (Epoch: 19 March)

Event Time Altitude Azimuth Distance (km) Brightness Sun altitude
Exits shadow 05:34:11 11° 191° (S) 1,384 -1.3 -16.7°
Maximum altitude 05:36:32 22° 142° (SE) 954 -1.6 -16.4°
Drops below altitude 10° 05:39:07 10° 90° (E) 1,468 0.4 -15.9°
Sets 05:41:30 0° 74° (ENE) 2,333 1.7 -15.5°
